DW4230 Weather Reports


time (UTC)temp
F
wind
direction
speed
knots
gust
knots
rain 1hr
in
rain 24hr
in
rain mn
in
humidity
%
barometer
mb
20260901161527 64 188 3.5 13.0 0.00 0.03 0.03 87 1016.3
20260901160110 64 124 4.3 12.2 0.00 0.03 0.03 85 1016.3
20260901154608 65 124 4.3 12.2 0.02 0.03 0.03 82 1016.2
20260901153017 66 124 1.7 9.6 0.02 0.03 0.03 86 1016.3
20260901151551 67 124 1.7 6.1 0.02 0.03 0.03 87 1016.4
20260901150019 68 193 3.5 6.1 0.02 0.03 0.03 90 1016.3
20260901144559 68 193 0.9 3.5 0.00 0.01 0.01 90 1016.8
20260901143035 68 190 0.9 2.6 0.01 0.01 0.01 90 1016.6
20260901141604 69 200 0.9 6.1 0.01 0.01 0.01 90 1016.3
20260901140020 69 179 0.0 5.2 0.01 0.01 0.01 90 1016.3
20260901134600 69 187 0.9 5.2 0.01 0.01 0.01 89 1016.2
20260901133031 70 153 0.9 5.2 0.00 0.00 0.00 88 1016.2
20260901131611 70 203 0.0 3.5 0.00 0.00 0.00 87 1016.1
20260901130039 70 196 0.9 5.2 0.00 0.00 0.00 87 1015.8
20260901124515 70 198 0.9 4.3 0.00 0.00 0.00 87 1016.0
20260901123051 70 172 0.9 6.1 0.00 0.00 0.00 87 1016.0
20260901121520 70 204 0.0 7.0 0.00 0.00 0.00 88 1016.0
20260901120113 69 202 0.0 2.6 0.00 0.00 0.00 90 1016.0
20260901114535 68 210 0.0 4.3 0.00 0.00 0.00 90 1016.1
20260901113101 68 211 0.0 0.9 0.00 0.00 0.00 90 1016.0
20260901111521 68 212 0.0 0.0 0.00 0.00 0.00 90 1015.8
20260901110051 68 212 0.0 0.0 0.00 0.00 0.00 90 1015.8
20260901104515 68 212 0.0 0.0 0.00 0.00 0.00 90 1015.6
20260901103100 68 212 0.0 0.0 0.00 0.01 0.00 90 1015.6
20260901101529 68 212 0.0 0.0 0.00 0.01 0.00 90 1015.3
20260901100058 67 212 0.0 0.0 0.00 0.01 0.00 90 1015.2
20260901094525 67 212 0.0 1.7 0.00 0.01 0.00 90 1015.2
20260901093103 67 212 0.0 2.6 0.00 0.01 0.00 90 1015.2
20260901091530 67 124 0.9 2.6 0.00 0.01 0.00 90 1015.2
20260901090006 67 212 0.0 1.7 0.00 0.01 0.00 89 1015.6
20260901084546 67 212 0.0 2.6 0.00 0.01 0.00 89 1015.9
20260901083013 68 212 0.0 0.9 0.00 0.01 0.00 89 1016.1
20260901081551 68 212 0.0 2.6 0.00 0.01 0.00 89 1016.1
20260901080009 68 212 0.0 2.6 0.00 0.01 0.00 89 1016.1
20260901074544 67 124 0.9 2.6 0.00 0.01 0.00 89 1016.1
20260901073010 67 212 0.0 4.3 0.00 0.01 0.00 88 1016.2
20260901071544 68 212 0.9 3.5 0.00 0.01 0.00 87 1016.1
20260901070013 68 124 0.0 3.5 0.00 0.01 0.00 86 1016.3
20260901064553 68 124 0.0 2.6 0.00 0.01 0.00 86 1016.5
20260901063044 68 124 0.9 6.1 0.00 0.01 0.00 85 1016.4
20260901061609 68 124 0.0 2.6 0.00 0.01 0.00 84 1016.5
20260901060029 68 210 0.9 4.3 0.00 0.01 0.00 82 1016.4
20260901054608 68 231 2.6 6.1 0.00 0.01 0.00 82 1016.4
20260901053036 68 200 0.9 3.5 0.00 0.15 0.00 81 1016.5
20260901051606 68 124 1.7 4.3 0.00 0.15 0.00 80 1016.5
20260901050032 68 124 2.6 7.0 0.00 0.15 0.00 81 1016.6
20260901044603 68 241 0.9 6.1 0.00 0.15 0.00 83 1016.8
20260901043031 68 124 1.7 7.0 0.00 0.63 0.15 84 1016.9
20260901041603 68 124 1.7 4.3 0.00 0.63 0.15 84 1016.9
20260901040026 68 193 0.9 4.3 0.00 0.63 0.15 85 1016.8
20260901033041 68 226 0.9 5.2 0.00 0.69 0.15 84 1017.0
20260901031507 68 124 0.9 5.2 0.00 0.69 0.15 83 1017.0
20260901030045 68 124 2.6 6.1 0.00 0.69 0.15 83 1017.0
20260901024509 68 124 2.6 7.0 0.00 0.69 0.15 83 1017.0
20260901023048 68 124 2.6 6.1 0.00 0.69 0.15 84 1017.3
20260901021510 68 191 0.9 4.3 0.00 0.69 0.15 85 1017.2
20260901020051 68 124 2.6 7.8 0.00 0.69 0.15 86 1017.3
20260901014509 68 124 1.7 3.5 0.00 0.69 0.15 87 1017.2
20260901013041 68 124 1.7 7.0 0.00 0.69 0.15 87 1017.2
20260901010045 68 124 0.0 5.2 0.00 0.69 0.15 86 1017.4
20260901004518 68 124 1.7 6.1 0.00 0.69 0.15 86 1017.3
20260901003040 68 124 0.9 7.8 0.00 0.69 0.15 85 1017.5
20260901001515 68 209 1.7 5.2 0.00 0.69 0.15 85 1017.6
20260901000046 68 124 0.9 4.3 0.00 0.69 0.15 86 1017.5
20260831234512 68 124 0.9 7.0 0.00 0.69 0.15 86 1017.5
20260831233059 68 124 0.9 4.3 0.00 0.69 0.15 86 1017.4
20260831231521 69 124 1.7 7.0 0.00 0.69 0.15 85 1017.4
20260831230104 69 124 1.7 7.8 0.00 0.69 0.15 85 1017.5
20260831224526 69 124 2.6 7.0 0.00 0.69 0.15 85 1017.5
20260831223023 70 124 0.9 4.3 0.00 0.69 0.15 83 1017.5
20260831221547 70 124 0.0 4.3 0.00 0.69 0.15 84 1017.6
20260831220007 71 124 0.9 6.1 0.00 0.69 0.15 83 1017.5
20260831214556 72 124 0.9 5.2 0.00 0.69 0.15 81 1017.6
20260831213009 72 124 2.6 5.2 0.00 0.69 0.15 80 1017.7
20260831211554 72 124 2.6 4.3 0.00 0.69 0.15 81 1017.7
20260831210032 72 124 1.7 6.1 0.00 0.69 0.15 82 1017.4
20260831204609 72 124 0.0 5.2 0.00 0.69 0.15 81 1017.4
20260831203028 74 234 3.5 7.8 0.00 0.69 0.15 77 1017.8
20260831201505 74 124 4.3 8.7 0.00 0.69 0.15 77 1017.6
20260831200042 75 198 0.9 6.1 0.00 0.69 0.15 68 1017.7
20260831194607 74 124 1.7 3.5 0.00 0.69 0.15 70 1017.8
20260831193028 73 150 0.0 5.2 0.00 0.69 0.15 71 1017.6
20260831191554 73 148 0.0 4.3 0.00 0.69 0.15 70 1018.0
20260831190011 73 148 0.9 4.3 0.00 0.69 0.15 66 1018.0
20260831184550 73 147 0.9 4.3 0.00 0.69 0.15 64 1018.3
20260831183014 73 145 1.7 4.3 0.00 0.69 0.15 68 1017.9
20260831181608 73 86 2.6 6.1 0.00 0.69 0.15 64 1018.1
20260831180037 74 189 1.7 6.1 0.00 0.69 0.15 63 1018.4
20260831174503 74 146 2.6 6.1 0.00 0.69 0.15 63 1018.1
20260831173038 72 153 0.9 5.2 0.00 0.69 0.15 65 1018.3
20260831171609 73 104 1.7 7.0 0.00 0.69 0.15 68 1018.4
20260831170035 72 119 1.7 5.2 0.00 0.69 0.15 69 1018.6
20260831164614 72 147 2.6 7.8 0.00 0.69 0.15 68 1018.6
20260831163037 72 156 3.5 9.6 0.00 0.69 0.15 68 1018.6